Location: Eferding
(48.3167°N, 14.0167°E)
Time: 03:43:37
(UTC+00:00)

GEOS 3 Rocket - Pass Details

Date: 12 November 2019
Orbit: 786 x 833 km, 115.0° (Epoch: 07 December)

Event Time Altitude Azimuth Distance (km) Brightness Sun altitude
Exits shadow 17:17:33 14° 30° (NNE) 2,115 5.4 -18.0°
Maximum altitude 17:21:48 50° 320° (NW) 1,039 4.4 -18.7°
Drops below altitude 10° 17:26:51 10° 246° (WSW) 2,418 7.1 -19.5°
Sets 17:29:13 0° 241° (WSW) 3,353 8.0 -19.9°
